Hoquiam, WA
on Wednesday, December 19, 2012

Wednesday
Previous Day Next Day
Daily Summary
 ActualAverageRecord
Temperature
Mean Temperature °F 41°F  
Max Temperature 44°F 46°F 55°F (1981)
Min Temperature 33°F 37°F 21°F (1990)
Degree Days
Heating Degree Days 26 24  
Month to date heating degree days 443  
Cooling Degree Days 0 0  
Month to date cooling degree days 0  
Year to date cooling degree days 23  
Moisture
Dew Point 37°F   
Average Humidity 92    
Maximum Humidity 100    
Minimum Humidity 87    
Precipitation
Precipitation 2.15 in 0.31 in 2.68 in (1994)
Month to date precipitation 6.10  
Year to date precipitation 63.69  
Wind
Wind Speed 15 mph   
Max Wind Speed 29 mph   
Max Gust Speed 40 mph   
Visibility 6 miles   
Events Rain , Snow   

Key: T is trace of precipitation, MM is missing value
Source: NWS Daily Summary
Time(PST)TemperatureDew PointHumidity Pressure Visibility Wind DirectionWind SpeedGust SpeedPrecipitationEvents Conditions
12:10 AM 35.6°F 33.8°F 93% 29.90 in 10.0 miles East 15.0 mph - 0.00 in Rain Light Rain
12:53 AM 36.0°F 34.0°F 93% 29.89 in 10.0 miles East 13.8 mph - 0.03 in Rain Light Rain
1:38 AM 33.8°F 33.8°F 100% 29.85 in 5.0 miles ENE 13.8 mph - 0.03 in Snow Light Snow
1:53 AM 34.0°F 33.1°F 96% 29.84 in 4.0 miles ENE 11.5 mph - 0.04 in Snow Light Snow
2:53 AM 34.0°F 33.1°F 96% 29.82 in 3.0 miles ENE 10.4 mph - 0.04 in Snow Light Snow
3:08 AM 33.8°F 33.8°F 100% 29.80 in 2.0 miles ENE 10.4 mph - 0.00 in Snow Light Snow
3:26 AM 33.8°F 33.8°F 100% 29.79 in 3.0 miles ENE 10.4 mph - 0.02 in Snow Light Snow
3:35 AM 33.8°F 33.8°F 100% 29.78 in 2.5 miles ENE 11.5 mph - 0.02 in Snow Light Snow
3:43 AM 33.8°F 33.8°F 100% 29.77 in 3.0 miles ENE 11.5 mph - 0.03 in Snow Light Snow
3:53 AM 34.0°F 33.1°F 96% 29.77 in 5.0 miles ENE 12.7 mph - 0.04 in Snow Light Snow
4:07 AM 33.8°F 33.8°F 100% 29.76 in 6.0 miles ENE 11.5 mph - 0.02 in Rain Light Freezing Rain
4:19 AM 33.8°F 33.8°F 100% 29.75 in 4.0 miles ENE 13.8 mph - 0.05 in Rain Light Freezing Rain
4:28 AM 35.6°F 33.8°F 93% 29.74 in 5.0 miles NE 12.7 mph - 0.07 in Rain Light Freezing Rain
4:31 AM 35.6°F 33.8°F 93% 29.74 in 5.0 miles NE 12.7 mph - 0.07 in Rain Light Rain
4:38 AM 35.6°F 33.8°F 93% 29.74 in 5.0 miles NE 11.5 mph - 0.08 in Rain Light Freezing Rain
4:53 AM 35.1°F 34.0°F 96% 29.75 in 5.0 miles ENE 10.4 mph - 0.11 in Rain Light Freezing Rain
5:04 AM 35.6°F 33.8°F 93% 29.73 in 4.0 miles ENE 13.8 mph - 0.02 in Rain Rain
5:12 AM 37.4°F 35.6°F 93% 29.72 in 5.0 miles East 12.7 mph - 0.04 in Rain Light Freezing Rain
5:30 AM 37.4°F 37.4°F 100% 29.71 in 6.0 miles East 18.4 mph 24.2 mph 0.06 in Rain Light Rain
5:44 AM 39.2°F 37.4°F 93% 29.70 in 8.0 miles East 15.0 mph 25.3 mph 0.07 in Rain Light Rain
5:53 AM 39.9°F 37.0°F 89% 29.72 in 10.0 miles ESE 15.0 mph - 0.07 in Rain Light Rain
6:53 AM 39.0°F 36.0°F 89% 29.69 in 5.0 miles East 17.3 mph - 0.13 in Rain Rain
7:34 AM 39.2°F 37.4°F 93% 29.65 in 4.0 miles East 17.3 mph - 0.10 in Rain Rain
7:53 AM 37.9°F 36.0°F 93% 29.66 in 5.0 miles East 18.4 mph 26.5 mph 0.16 in Rain Rain
8:01 AM 37.4°F 35.6°F 93% 29.65 in 5.0 miles East 19.6 mph 25.3 mph 0.03 in Rain Rain
8:53 AM 37.9°F 37.0°F 97% 29.65 in 4.0 miles East 16.1 mph - 0.18 in Rain Rain
9:53 AM 41.0°F 37.9°F 89% 29.62 in 4.0 miles East 16.1 mph 23.0 mph 0.14 in Rain Light Rain
10:39 AM 42.8°F 39.2°F 87% 29.61 in 4.0 miles SE 23.0 mph 33.4 mph 0.09 in Rain Light Rain
10:53 AM 43.0°F 39.9°F 89% 29.62 in 2.5 miles SE 21.9 mph 32.2 mph 0.13 in Rain Rain
11:07 AM 42.8°F 39.2°F 87% 29.60 in 2.5 miles SE 24.2 mph 35.7 mph 0.05 in Rain Light Rain
11:14 AM 42.8°F 39.2°F 87% 29.59 in 6.0 miles SE 21.9 mph 36.8 mph 0.06 in Rain Light Rain
11:30 AM 42.8°F 39.2°F 87% 29.58 in 3.0 miles SE 18.4 mph 29.9 mph 0.08 in Rain Light Rain
11:36 AM 42.8°F 39.2°F 87% 29.58 in 2.5 miles ESE 19.6 mph 27.6 mph 0.09 in Rain Light Rain
11:53 AM 43.0°F 39.9°F 89% 29.57 in 4.0 miles SE 25.3 mph 32.2 mph 0.10 in Rain Light Rain
12:06 PM 44.6°F 41.0°F 87% 29.56 in 2.5 miles SE 28.8 mph 40.3 mph 0.03 in Rain Rain
12:24 PM 44.6°F 41.0°F 87% 29.56 in 3.0 miles SE 23.0 mph 36.8 mph 0.08 in Rain Light Rain
12:28 PM 44.6°F 41.0°F 87% 29.55 in 2.5 miles SSE 23.0 mph 36.8 mph 0.10 in Rain Rain
12:38 PM 44.6°F 42.8°F 93% 29.58 in 1.2 miles SSE 15.0 mph 29.9 mph 0.18 in Rain Rain
12:53 PM 44.1°F 42.1°F 93% 29.59 in 1.2 miles SSE 19.6 mph 25.3 mph 0.37 in Rain Rain
1:05 PM 44.6°F 41.0°F 87% 29.58 in 2.5 miles SSE 18.4 mph 31.1 mph 0.05 in Rain Rain
1:13 PM 44.6°F 41.0°F 87% 29.56 in 4.0 miles ESE 16.1 mph 25.3 mph 0.06 in Rain Light Rain
1:20 PM 42.8°F 39.2°F 87% 29.56 in 7.0 miles East 16.1 mph - 0.06 in Rain Light Rain
1:30 PM 42.8°F 41.0°F 93% 29.56 in 10.0 miles East 18.4 mph - 0.06 in   Overcast
1:53 PM 44.1°F 42.1°F 93% 29.59 in 3.0 miles SE 16.1 mph 23.0 mph 0.12 in Rain Rain
1:56 PM 42.8°F 41.0°F 93% 29.56 in 2.5 miles ESE 9.2 mph 23.0 mph 0.01 in Rain Rain
2:00 PM 42.8°F 41.0°F 93% 29.56 in 3.0 miles ESE 18.4 mph 23.0 mph 0.02 in Rain Rain
2:07 PM 42.8°F 41.0°F 93% 29.56 in 4.0 miles ESE 17.3 mph - 0.02 in Rain Light Rain
2:31 PM 41.0°F 39.2°F 93% 29.58 in 3.0 miles ESE 18.4 mph - 0.08 in Rain Rain
2:44 PM 41.0°F 39.2°F 93% 29.58 in 5.0 miles ESE 20.7 mph - 0.10 in Rain Light Rain
2:53 PM 41.0°F 39.0°F 93% 29.59 in 7.0 miles East 21.9 mph - 0.11 in Rain Light Rain
3:00 PM 41.0°F 39.2°F 93% 29.57 in 7.0 miles East 19.6 mph - 0.00 in Rain Light Rain
3:53 PM 39.9°F 37.9°F 93% 29.59 in 10.0 miles East 16.1 mph - 0.01 in Rain Light Rain
4:53 PM 39.9°F 37.0°F 89% 29.59 in 10.0 miles ESE 20.7 mph - 0.01 in Rain Light Rain
5:53 PM 41.0°F 39.0°F 93% 29.59 in 8.0 miles ESE 16.1 mph - 0.03 in Rain Light Rain
6:53 PM 41.0°F 37.9°F 89% 29.59 in 10.0 miles East 12.7 mph - 0.02 in   Overcast
7:53 PM 41.0°F 39.0°F 93% 29.58 in 9.0 miles East 9.2 mph - 0.06 in Rain Light Rain
8:09 PM 39.2°F 39.2°F 100% 29.57 in 10.0 miles ENE 8.1 mph - 0.01 in Rain Light Rain
8:53 PM 41.0°F 37.9°F 89% 29.58 in 10.0 miles East 11.5 mph - 0.02 in Rain Light Rain
9:35 PM 41.0°F 37.4°F 87% 29.57 in 10.0 miles East 8.1 mph - 0.02 in Rain Light Rain
9:46 PM 41.0°F 37.4°F 87% 29.57 in 10.0 miles East 8.1 mph - 0.03 in Rain Light Rain
9:53 PM 41.0°F 37.9°F 89% 29.57 in 10.0 miles East 5.8 mph - 0.03 in Rain Light Rain
10:02 PM 39.2°F 37.4°F 93% 29.55 in 8.0 miles ENE 6.9 mph - 0.01 in Rain Light Rain
10:29 PM 39.2°F 37.4°F 93% 29.54 in 9.0 miles East 12.7 mph - 0.02 in Rain Light Rain
10:37 PM 39.2°F 37.4°F 93% 29.54 in 9.0 miles East 11.5 mph - 0.03 in Rain Light Rain
10:53 PM 39.9°F 37.9°F 93% 29.54 in 9.0 miles ENE 8.1 mph - 0.04 in Rain Light Rain
10:59 PM 39.2°F 37.4°F 93% 29.53 in 7.0 miles ENE 10.4 mph - 0.01 in Rain Light Rain
11:21 PM 39.2°F 37.4°F 93% 29.52 in 9.0 miles East 9.2 mph 16.1 mph 0.05 in Rain Light Rain
11:53 PM 37.9°F 35.1°F 89% 29.53 in 5.0 miles ESE 9.2 mph - 0.16 in Rain Rain
Moon Phase
Dec. 19 Dec. 20 Dec. 28 Jan. 04 Jan. 11
Sunrise:07:57 AM (PST) Moon Rise:11:43 AM (PST)
Sunset:04:28 PM (PST) Moon Set:No Moon Set/

Copyright © 2014 The Weather Underground, Inc.